Regional Weather Roundup
Issued by NWS

Home | Current Version | Previous Version | Graphics & Text | Print | Product List | Glossary On
Versions: 1 2 3 4 5 6 7 8 9 10 11 12 13 14 15 16 17 18 19 20 21 22 23 24 25 26 27 28 29 30 31 32 33 34 35 36 37 38 39 40 41 42 43 44 45 46 47 48 49 50
000
ASUS43 KDMX 211901
RWRIA

WEATHER ROUNDUP FOR IOWA
NATIONAL WEATHER SERVICE DES MOINES IA
100 PM CST TUE NOV 21 2017

NOTE: "FAIR" INDICATES FEW OR NO CLOUDS BELOW 12,000 FEET WITH NO
SIGNIFICANT WEATHER AND/OR OBSTRUCTIONS TO VISIBILITY.

* - THESE STATIONS ARE NOT NWS STATIONS...THUS NOT UNDER NWS
QUALITY CONTROL.  THEY ALSO DO NOT REPORT WEATHER SUCH
AS PRECIPITATION OR FOG.

IAZ001>003-012>014-020>022-031>034-043>046-212000-
   NORTHWEST IOWA

CITY           SKY/WX    TMP DP  RH WIND       PRES   REMARKS
CARROLL *      SUNNY     32  14  47 NW30G38   30.18R WCI  18
CHEROKEE *     SUNNY     30  13  49 NW16G25   30.23R WCI  18
DENISON *      SUNNY     30  12  47 N22G29    30.24R WCI  17
LE MARS *      SUNNY     28  12  50 NW20G26   30.27R WCI  15
ORANGE CITY *  SUNNY     28  14  54 NW20G30   30.23R WCI  15
SHELDON *      SUNNY     27  10  50 NW26G33   30.21R WCI  11
SIOUX CITY     SUNNY     28  11  48 NW29G37   30.28R WCI  12
SPENCER        SUNNY     30  12  47 NW23G32   30.19R WCI  17
STORM LAKE *   SUNNY     28  12  50 NW26G36   30.19R WCI  13
$$

IAZ055>058-069>071-079>083-090>094-212000-
   SOUTHWEST IOWA

CITY           SKY/WX    TMP DP  RH WIND       PRES   REMARKS
ATLANTIC *     SUNNY     32  14  47 NW25G35   30.20R WCI  19
AUDUBON *      SUNNY     30  12  47 NW21G30   30.19R WCI  17
CLARINDA *     SUNNY     36  16  44 NW22G29   30.21R WCI  24
COUNCIL BLFS * SUNNY     30  14  51 NW18G29   30.23R WCI  18
CRESTON *      SUNNY     34  16  47 NW25      30.16R WCI  21
HARLAN  *      SUNNY     32  14  47 NW28      30.24R WCI  18
LAMONI         SUNNY     39  18  42 N17G26    30.11R WCI  30
RED OAK *      SUNNY     34  14  44 NW21G28   30.22R WCI  22
SHENANDOAH *   SUNNY     34  16  47 N20G29    30.23R WCI  22
$$

IAZ047>049-059>061-072>074-084-212000-
   CENTRAL IOWA

CITY           SKY/WX    TMP DP  RH WIND       PRES   REMARKS
AMES           SUNNY     34  17  50 N21G31    30.14R WCI  22
ANKENY *       SUNNY     34  16  47 NW15G26   30.15R WCI  24
BOONE *        SUNNY     32  16  51 NW22G30   30.13R WCI  19
CHARITON *     SUNNY     34  16  47 NW21G32   30.11R WCI  22
DES MOINES     MOSUNNY   34  15  46 NW21G33   30.14R WCI  22
GRINNELL*      SUNNY     32  17  55 NW22G32   30.09R WCI  19
KNOXVILLE *    SUNNY     34  14  44 NW24G32   30.10R WCI  21
MARSHALLTOWN   SUNNY     32  17  54 NW29      30.10R WCI  18
NEWTON *       SUNNY     32  16  51 NW24G32   30.11R WCI  19
PELLA *        SUNNY     34  17  49 NW21G28   30.11R WCI  22
PERRY *          N/A     32  12  44 NW17G31   30.17R WCI  21
$$

IAZ004>006-015-016-023>025-035-036-212000-
   NORTH CENTRAL IOWA

CITY           SKY/WX    TMP DP  RH WIND       PRES   REMARKS
ALGONA *       SUNNY     30  14  51 NW23G31   30.16R WCI  17
CLARION *      SUNNY     30  16  55 NW30G39   30.13R WCI  15
ESTHERVILLE    SUNNY     26  12  55 NW29G36   30.18R WCI  10
FORT DODGE *   SUNNY     30  15  53 NW17G26   30.17R WCI  18
MASON CITY     SUNNY     29  14  53 NW26G35   30.11R WCI  14
FOREST CITY *    N/A     30  16  55 NW26G33   30.12R WCI  16
WEBSTER CITY * FLURRIES  32  14  47 NW29G36   30.13R WCI  18
IOWA FALLS *     N/A     32  17  55 NW30G36   30.11R WCI  17
$$

IAZ007>011-017>019-026>030-037>042-050>054-066-212000-
   NORTHEAST IOWA

CITY           SKY/WX    TMP DP  RH WIND       PRES   REMARKS
CEDAR RAPIDS   SUNNY     33  17  51 NW24G33   30.03R WCI  20
CHARLES CITY * PTSUNNY   28  14  54 NW23G32   30.07R WCI  14
CLINTON *      CLOUDY    34  21  59 NW25G31   29.98R WCI  21
DECORAH *      MOSUNNY   30  14  51 NW24G30   30.00R WCI  16
DUBUQUE        PTSUNNY   33  18  53 N21G28    29.97R WCI  21
MONTICELLO *   PTSUNNY   34  18  51 NW22G28   30.00R WCI  22
OELWEIN *      PTSUNNY   30  18  59 NW23G32   30.04R WCI  17
WATERLOO       SUNNY     30  14  51 NW26G36   30.07R WCI  16
$$

IAZ064-065-067-068-078-212000-
   EAST CENTRAL IOWA

CITY           SKY/WX    TMP DP  RH WIND       PRES   REMARKS
DAVENPORT      CLOUDY    33  20  58 NW23G32   30.01R WCI  21
IOWA CITY      MOSUNNY   36  18  48 NW22G31   30.05R WCI  25
MT. PLEASANT * PTSUNNY   34  18  52 NW17G29   30.04R WCI  23
MUSCATINE *    CLOUDY    37  18  44 NW21G31   30.03R WCI  27
QUAD CITIES    CLOUDY    35  18  49 NW21G30   29.99R WCI  24
$$

IAZ062-063-075>077-085>089-095>099-212000-
   SOUTHEAST IOWA

CITY           SKY/WX    TMP DP  RH WIND       PRES   REMARKS
BURLINGTON     CLOUDY    38  23  55 NW17G24   30.01R WCI  28
FAIRFIELD *    CLOUDY    36  18  48 NW30G37   30.04R WCI  22
FORT MADISON * CLOUDY    39  21  48 NW20G29   30.02R WCI  30
KEOKUK *       CLOUDY    41  21  45 NW20      30.01R
OSKALOOSA *      N/A     33  19  55 NW28      30.09R WCI  20
OTTUMWA        SUNNY     35  18  49 NW29G35   30.08R WCI  22
WASHINGTON *   MOSUNNY   36  19  51 NW26G37   30.06R WCI  23
$$

ABBREVIATIONS USED IN REMARKS
   TC - TEMPERATURES IN CELSIUS
  WCI - WIND CHILL INDEX
   HX - HEAT INDEX
  VSB - VISIBILITY
$$





USA.gov is the U.S. government's official web portal to all federal, state and local government web resources and services.